DW7888 Weather Reports


time (UTC)temp
C
wind
direction
speed
KPH
gust
KPH
rain 1hr
cm
rain 24hr
cm
rain mn
cm
humidity
%
barometer
mb
20260906193004 27 331 0.0 12.9 0.00 0.00 0.00 58 1014.4
20260906192511 27 342 3.2 12.9 0.00 0.00 0.00 58 1014.4
20260906192012 27 300 3.2 8.0 0.00 0.00 0.00 57 1014.4
20260906191504 27 338 3.2 6.4 0.00 0.03 0.00 56 1014.4
20260906191008 28 262 1.6 8.0 0.00 0.03 0.00 55 1014.4
20260906190513 27 244 0.0 8.0 0.00 0.03 0.00 58 1014.5
20260906190006 27 292 1.6 8.0 0.00 0.08 0.00 58 1014.6
20260906185507 28 334 1.6 8.0 0.00 0.13 0.00 57 1014.8
20260906185015 28 311 3.2 8.0 0.00 0.13 0.00 57 1014.8
20260906184506 28 60 0.0 8.0 0.00 0.13 0.00 60 1014.7
20260906184008 28 327 1.6 8.0 0.00 0.13 0.00 58 1014.8
20260906183518 27 340 3.2 14.5 0.00 0.15 0.00 56 1014.8
20260906183018 27 347 3.2 14.5 0.00 0.20 0.00 56 1014.8
20260906182512 27 317 4.8 14.5 0.00 0.20 0.00 57 1014.8
20260906182014 27 15 3.2 12.9 0.00 0.20 0.00 58 1014.9
20260906181508 27 326 6.4 12.9 0.00 0.20 0.00 55 1014.9
20260906181012 28 29 0.0 8.0 0.00 0.20 0.00 59 1014.9
20260906180516 27 257 1.6 8.0 0.00 0.20 0.00 62 1014.9
20260906180007 26 315 0.0 4.8 0.00 0.20 0.00 63 1015.0
20260906175515 26 343 1.6 6.4 0.00 0.20 0.00 63 1014.9
20260906175016 26 15 1.6 9.7 0.00 0.20 0.00 61 1014.9
20260906174508 27 310 0.0 9.7 0.00 0.20 0.00 60 1014.9
20260906174012 27 352 1.6 9.7 0.00 0.20 0.00 60 1014.9
20260906173516 26 312 1.6 8.0 0.00 0.20 0.00 63 1014.9
20260906173017 26 26 1.6 8.0 0.00 0.20 0.00 63 1014.9
20260906172516 26 24 0.0 4.8 0.00 0.20 0.00 64 1014.9
20260906172013 26 44 0.0 4.8 0.00 0.20 0.00 66 1015.0
20260906171512 26 76 0.0 8.0 0.00 0.20 0.00 62 1015.0
20260906171012 26 51 1.6 8.0 0.00 0.20 0.00 61 1015.1
20260906170519 26 338 1.6 6.4 0.00 0.20 0.00 61 1015.1
20260906170009 26 145 0.0 6.4 0.00 0.20 0.00 61 1015.1
20260906165514 27 22 0.0 8.0 0.00 0.23 0.00 63 1015.2
20260906165021 26 53 1.6 9.7 0.00 0.25 0.00 60 1015.2
20260906164523 27 329 1.6 9.7 0.00 0.33 0.00 58 1015.2
20260906164014 27 334 3.2 8.0 0.00 0.38 0.00 61 1015.3
20260906163516 26 312 1.6 9.7 0.00 0.43 0.00 61 1015.2
20260906163021 27 348 1.6 9.7 0.00 0.46 0.00 62 1015.3
20260906162512 26 342 0.0 4.8 0.00 0.79 0.00 59 1015.3
20260906162018 26 307 1.6 6.4 0.00 1.40 0.00 64 1015.3
20260906161514 26 5 1.6 6.4 0.00 1.52 0.00 65 1015.4
20260906161014 26 296 3.2 8.0 0.00 2.01 0.00 61 1015.3
20260906160515 26 327 3.2 8.0 0.00 2.41 0.00 63 1015.3
20260906160016 26 26 1.6 4.8 0.00 2.41 0.00 64 1015.4
20260906155515 26 15 0.0 8.0 0.00 2.41 0.00 65 1015.5
20260906155019 26 306 1.6 8.0 0.00 2.41 0.00 63 1015.5
20260906154520 26 51 0.0 6.4 0.00 2.41 0.00 69 1015.6
20260906154016 26 346 0.0 6.4 0.00 2.41 0.00 70 1015.6
20260906153511 26 35 1.6 4.8 0.00 2.41 0.00 68 1015.6
20260906153018 26 320 1.6 4.8 0.00 2.41 0.00 73 1015.5
20260906152517 26 283 0.0 4.8 0.00 2.41 0.00 71 1015.5
20260906152009 25 345 0.0 4.8 0.00 2.41 0.00 76 1015.5
20260906151520 25 330 0.0 4.8 0.00 2.41 0.00 77 1015.4
20260906151017 25 18 0.0 4.8 0.00 2.41 0.00 77 1015.5
20260906150511 24 57 0.0 6.4 0.00 2.41 0.00 74 1015.5
20260906150042 24 114 0.0 9.7 0.00 2.41 0.00 74 1015.4
20260906145514 24 65 0.0 9.7 0.00 2.41 0.00 76 1015.3
20260906145007 25 102 1.6 6.4 0.00 2.41 0.00 75 1015.3
20260906144533 25 325 1.6 6.4 0.00 2.41 0.00 74 1015.3
20260906144015 24 355 0.0 6.4 0.00 2.41 0.00 76 1015.2
20260906143508 23 36 3.2 6.4 0.00 2.41 0.00 76 1015.3
20260906143033 23 40 1.6 6.4 0.00 2.41 0.00 77 1015.3
20260906142516 23 47 0.0 6.4 0.00 2.41 0.00 81 1015.2
20260906142009 23 330 1.6 6.4 0.00 2.41 0.00 81 1015.3
20260906141536 23 263 0.0 1.6 0.00 2.41 0.00 81 1015.3
20260906141015 23 9 0.0 0.0 0.00 2.41 0.00 82 1015.2
20260906140513 23 9 0.0 3.2 0.00 2.41 0.00 82 1015.2
20260906140025 23 9 0.0 6.4 0.00 2.41 0.00 81 1015.2
20260906135519 23 291 0.0 6.4 0.00 2.41 0.00 82 1015.1
20260906135011 23 47 1.6 6.4 0.00 2.41 0.00 80 1015.1
20260906134524 23 328 0.0 4.8 0.00 2.41 0.00 84 1015.1
20260906134018 22 157 0.0 3.2 0.00 2.41 0.00 84 1014.9
20260906133515 22 325 0.0 4.8 0.00 2.41 0.00 84 1014.9
20260906133028 22 311 0.0 4.8 0.00 2.41 0.00 85 1015.0
20260906132518 22 51 0.0 4.8 0.00 2.41 0.00 86 1014.9
20260906132010 22 310 0.0 4.8 0.00 2.41 0.00 87 1014.9
20260906131529 22 155 0.0 4.8 0.00 2.41 0.00 88 1014.9
20260906131017 22 19 0.0 4.8 0.00 2.41 0.00 87 1015.0
20260906130511 22 167 1.6 4.8 0.00 2.41 0.00 87 1014.8
20260906130041 22 324 1.6 4.8 0.00 2.41 0.00 88 1014.5
20260906125522 21 61 0.0 4.8 0.00 2.41 0.00 90 1014.5
20260906125011 21 352 0.0 4.8 0.00 2.41 0.00 90 1014.7
20260906124504 21 306 0.0 4.8 0.00 2.41 0.00 90 1014.9
20260906124006 21 360 0.0 1.6 0.00 2.41 0.00 90 1015.0
20260906123513 21 360 0.0 1.6 0.00 2.41 0.00 90 1015.0
20260906123004 21 360 0.0 1.6 0.00 2.41 0.00 90 1015.0
20260906122508 21 360 0.0 1.6 0.00 2.41 0.00 91 1014.9
20260906122014 21 360 0.0 1.6 0.00 2.41 0.00 92 1014.8
20260906121504 21 360 0.0 4.8 0.00 2.41 0.00 94 1014.8
20260906121009 21 285 0.0 4.8 0.00 2.41 0.00 94 1014.7
20260906120515 21 245 0.0 0.0 0.00 2.41 0.00 95 1014.6
20260906120007 21 242 0.0 0.0 0.00 2.41 0.00 95 1014.5
20260906115511 20 242 0.0 0.0 0.00 2.41 0.00 95 1014.4
20260906115012 20 242 0.0 0.0 0.00 2.41 0.00 95 1014.3
20260906114505 20 242 0.0 0.0 0.00 2.41 0.00 95 1014.3
20260906114013 20 242 0.0 0.0 0.00 2.41 0.00 95 1014.2
20260906113517 20 242 0.0 0.0 0.00 2.41 0.00 96 1014.1
20260906113008 20 242 0.0 0.0 0.00 2.41 0.00 96 1014.1
20260906112511 20 242 0.0 0.0 0.00 2.41 0.00 96 1014.0
20260906112017 21 242 0.0 0.0 0.00 2.41 0.00 95 1013.9
20260906111507 21 176 0.0 0.0 0.00 2.41 0.00 96 1013.7
20260906111011 21 176 0.0 0.0 0.00 2.41 0.00 96 1013.6
20260906110513 21 284 0.0 0.0 0.00 2.41 0.00 96 1013.5
20260906110013 21 284 0.0 0.0 0.00 2.41 0.00 96 1013.6
20260906105513 21 284 0.0 0.0 0.00 2.41 0.00 96 1013.6
20260906105017 21 284 0.0 0.0 0.00 2.41 0.00 96 1013.5
20260906104516 21 284 0.0 0.0 0.00 2.41 0.00 96 1013.5
20260906104012 21 284 0.0 0.0 0.00 2.41 0.00 96 1013.4
20260906103504 21 284 0.0 0.0 0.00 2.41 0.00 96 1013.4
20260906103010 21 284 0.0 0.0 0.00 2.41 0.00 97 1013.3
20260906102513 21 284 0.0 0.0 0.00 2.41 0.00 96 1013.4
20260906102007 21 284 0.0 0.0 0.00 2.41 0.00 96 1013.3
20260906101510 21 284 0.0 0.0 0.00 2.41 0.00 96 1013.3
20260906101011 21 284 0.0 0.0 0.00 2.41 0.00 96 1013.2
20260906100503 21 5 0.0 0.0 0.00 2.41 0.00 96 1013.1
20260906100012 21 5 0.0 0.0 0.00 2.41 0.00 96 1013.0
20260906095512 21 5 0.0 0.0 0.00 2.41 0.00 96 1013.0
20260906095006 21 5 0.0 0.0 0.00 2.41 0.00 96 1012.9
20260906094511 22 5 0.0 0.0 0.00 2.41 0.00 96 1012.9
20260906094003 22 5 0.0 0.0 0.00 2.41 0.00 96 1012.9
20260906093503 22 5 0.0 0.0 0.00 2.41 0.00 96 1013.0
20260906093003 22 5 0.0 0.0 0.00 2.41 0.00 96 1012.9
20260906092503 22 5 0.0 0.0 0.00 2.41 0.00 96 1012.8
20260906092004 22 5 0.0 0.0 0.00 2.41 0.00 96 1012.6
20260906091503 22 5 0.0 0.0 0.00 2.41 0.00 96 1012.7
20260906091003 22 5 0.0 0.0 0.00 2.41 0.00 96 1012.6
20260906090506 22 5 0.0 0.0 0.00 2.41 0.00 96 1012.6
20260906090004 22 5 0.0 0.0 0.00 2.41 0.00 96 1012.5
20260906085504 22 5 0.0 0.0 0.00 2.41 0.00 96 1012.5
20260906085003 22 5 0.0 0.0 0.00 2.41 0.00 96 1012.5
20260906084504 22 5 0.0 0.0 0.00 2.41 0.00 96 1012.4
20260906084005 22 5 0.0 0.0 0.00 2.41 0.00 96 1012.4
20260906083502 22 5 0.0 0.0 0.00 2.41 0.00 96 1012.4
20260906083004 22 5 0.0 0.0 0.00 2.41 0.00 96 1012.4
20260906082503 22 5 0.0 0.0 0.00 2.41 0.00 96 1012.4
20260906082006 22 5 0.0 0.0 0.00 2.41 0.00 96 1012.4
20260906081510 22 5 0.0 0.0 0.00 2.41 0.00 96 1012.4
20260906081003 22 5 0.0 0.0 0.00 2.41 0.00 96 1012.4
20260906080507 22 5 0.0 0.0 0.00 2.41 0.00 96 1012.4
20260906080004 22 5 0.0 0.0 0.00 2.41 0.00 96 1012.4
20260906075503 22 5 0.0 0.0 0.00 2.41 0.00 96 1012.3
20260906075003 22 309 0.0 0.0 0.00 2.41 0.00 96 1012.3
20260906074503 22 309 0.0 0.0 0.00 2.41 0.00 96 1012.3
20260906074003 22 309 0.0 0.0 0.00 2.41 0.00 96 1012.3
20260906073502 22 309 0.0 0.0 0.00 2.41 0.00 96 1012.3
20260906073004 22 309 0.0 0.0 0.00 2.41 0.00 96 1012.3
20260906072504 22 309 0.0 0.0 0.00 2.41 0.00 96 1012.3
20260906072004 22 309 0.0 0.0 0.00 2.41 0.00 96 1012.3
20260906071503 22 309 0.0 0.0 0.00 2.41 0.00 96 1012.2
20260906071003 22 309 0.0 0.0 0.00 2.41 0.00 96 1012.2
20260906070505 22 309 0.0 0.0 0.00 2.41 0.00 96 1012.2
20260906070003 22 309 0.0 0.0 0.00 2.41 0.00 96 1012.2
20260906065503 22 309 0.0 0.0 0.00 2.41 0.00 96 1012.2
20260906065004 22 309 0.0 0.0 0.00 2.41 0.00 96 1012.2
20260906064506 22 309 0.0 0.0 0.00 2.41 0.00 96 1012.2
20260906064002 22 309 0.0 0.0 0.00 2.41 0.00 96 1012.2
20260906063503 22 309 0.0 0.0 0.00 2.41 0.00 96 1012.3
20260906063008 22 309 0.0 0.0 0.00 2.41 0.00 96 1012.4
20260906062508 22 309 0.0 0.0 0.00 2.41 0.00 96 1012.3
20260906062008 22 309 0.0 0.0 0.00 2.41 0.00 96 1012.3
20260906061506 22 309 0.0 0.0 0.00 2.41 0.00 96 1012.4
20260906061004 22 309 0.0 0.0 0.00 2.41 0.00 96 1012.4
20260906060503 22 309 0.0 0.0 0.00 2.41 0.00 96 1012.4
20260906060006 22 309 0.0 0.0 0.00 2.41 0.00 96 1012.6
20260906055503 22 309 0.0 0.0 0.00 2.41 0.00 96 1012.6
20260906055003 22 309 0.0 0.0 0.00 2.41 0.00 96 1012.6
20260906054503 22 309 0.0 0.0 0.00 2.41 0.00 96 1012.5
20260906054004 22 309 0.0 0.0 0.00 2.41 0.00 96 1012.4
20260906053506 22 309 0.0 0.0 0.00 2.41 0.00 96 1012.5
20260906053006 22 309 0.0 0.0 0.00 2.41 0.00 96 1012.4
20260906052507 22 309 0.0 0.0 0.00 2.41 0.00 96 1012.5
20260906052006 22 309 0.0 0.0 0.00 2.41 0.00 96 1012.4
20260906051504 22 309 0.0 0.0 0.00 2.41 0.00 96 1012.6
20260906051004 22 309 0.0 0.0 0.00 2.41 0.00 96 1012.8
20260906050505 22 309 0.0 0.0 0.00 2.41 0.00 96 1012.7
20260906050008 22 309 0.0 0.0 0.00 2.41 0.00 96 1012.7
20260906045509 22 309 0.0 0.0 0.00 2.41 0.00 96 1012.8
20260906045006 22 309 0.0 0.0 0.00 2.41 0.00 96 1012.7
20260906044506 22 309 0.0 0.0 0.00 2.41 0.00 96 1012.7
20260906044004 22 309 0.0 0.0 0.00 2.41 0.00 96 1012.6
20260906043511 22 309 0.0 0.0 0.00 2.41 0.00 96 1012.5
20260906043010 22 309 0.0 0.0 0.00 2.41 0.00 96 1012.5
20260906042505 22 309 0.0 0.0 0.00 2.41 0.00 96 1012.7
20260906042007 22 309 0.0 0.0 0.00 2.41 0.00 96 1012.7
20260906041510 22 309 0.0 0.0 0.00 2.41 0.00 96 1012.7
20260906041008 22 309 0.0 0.0 0.00 2.41 0.00 95 1012.8
20260906040507 22 309 0.0 0.0 0.00 2.41 0.00 95 1012.7
20260906040009 22 309 0.0 0.0 0.00 2.41 0.00 95 1012.7
20260906035508 22 309 0.0 0.0 0.00 2.41 2.41 95 1012.8
20260906035009 22 309 0.0 0.0 0.00 2.41 2.41 95 1012.7
20260906034509 22 309 0.0 0.0 0.00 2.41 2.41 95 1012.7
20260906034007 22 309 0.0 0.0 0.00 2.41 2.41 95 1012.7
20260906033505 22 309 0.0 0.0 0.00 2.41 2.41 95 1012.7
20260906033008 22 309 0.0 0.0 0.00 2.41 2.41 95 1012.6
20260906032507 22 309 0.0 0.0 0.00 2.41 2.41 95 1012.7
20260906032009 22 309 0.0 0.0 0.00 2.41 2.41 95 1012.7
20260906031514 22 309 0.0 0.0 0.00 2.41 2.41 95 1012.7
20260906031007 22 309 0.0 0.0 0.00 2.41 2.41 95 1012.7
20260906030507 22 309 0.0 0.0 0.00 2.41 2.41 95 1012.7
20260906030011 22 308 0.0 0.0 0.00 2.41 2.41 95 1012.7
20260906025508 22 309 0.0 0.0 0.00 2.41 2.41 95 1012.7
20260906025009 22 309 0.0 0.0 0.00 2.41 2.41 95 1012.6
20260906024512 22 308 0.0 0.0 0.00 2.41 2.41 95 1012.7
20260906024012 22 309 0.0 0.0 0.00 2.41 2.41 95 1012.6
20260906023508 22 308 0.0 0.0 0.00 2.41 2.41 95 1012.5
20260906023018 22 308 0.0 0.0 0.00 2.41 2.41 95 1012.6
20260906022510 22 308 0.0 0.0 0.00 2.41 2.41 95 1012.7
20260906022011 22 309 0.0 0.0 0.00 2.41 2.41 95 1012.6
20260906021512 22 309 0.0 0.0 0.00 2.41 2.41 95 1012.6
20260906021009 22 308 0.0 0.0 0.00 2.41 2.41 95 1012.7
20260906020511 22 308 0.0 0.0 0.00 2.41 2.41 95 1012.7
20260906020014 22 308 0.0 0.0 0.00 2.41 2.41 95 1012.6
20260906015515 22 308 0.0 0.0 0.00 2.41 2.41 95 1012.6
20260906015011 23 308 0.0 0.0 0.00 2.41 2.41 95 1012.7
20260906014513 23 308 0.0 0.0 0.00 2.41 2.41 95 1012.7
20260906014012 23 308 0.0 0.0 0.00 2.41 2.41 95 1012.6
20260906013510 23 308 0.0 0.0 0.00 2.41 2.41 94 1012.4
20260906013016 23 308 0.0 0.0 0.00 2.41 2.41 94 1012.4
20260906012510 23 308 0.0 0.0 0.00 2.41 2.41 94 1012.4
20260906012010 23 308 0.0 0.0 0.00 2.41 2.41 94 1012.3
20260906011518 23 308 0.0 0.0 0.00 2.41 2.41 94 1012.1
20260906011015 23 308 0.0 0.0 0.00 2.41 2.41 94 1012.1
20260906010510 23 309 0.0 0.0 0.00 2.41 2.41 94 1012.1
20260906010016 23 309 0.0 0.0 0.00 2.41 2.41 94 1011.9
20260906005511 23 308 0.0 0.0 0.00 2.41 2.41 94 1012.0
20260906005008 23 308 0.0 0.0 0.00 2.41 2.41 94 1011.9
20260906004517 23 308 0.0 0.0 0.00 2.41 2.41 94 1011.8
20260906004003 23 308 0.0 0.0 0.00 2.41 2.41 94 1011.8
20260906003511 23 308 0.0 0.0 0.00 2.41 2.41 94 1011.7
20260906003024 23 308 0.0 0.0 0.00 2.41 2.41 94 1011.7
20260906002506 23 308 0.0 0.0 0.00 2.41 2.41 93 1011.8
20260906002010 23 308 0.0 0.0 0.00 2.41 2.41 93 1011.6
20260906001516 23 308 0.0 0.0 0.00 2.41 2.41 93 1011.6
20260906001003 23 308 0.0 0.0 0.00 2.41 2.41 93 1011.5
20260906000512 23 308 0.0 0.0 0.00 2.41 2.41 93 1011.3
20260906000004 23 308 0.0 0.0 0.00 2.41 2.41 93 1011.2
20260905235507 24 308 0.0 0.0 0.00 2.41 2.41 92 1011.2
20260905235014 24 308 0.0 0.0 0.00 2.41 2.41 92 1011.2
20260905234508 24 308 0.0 0.0 0.00 2.41 2.41 92 1011.3
20260905234008 24 308 0.0 0.0 0.00 2.41 2.41 92 1011.3
20260905233511 24 308 0.0 0.0 0.00 2.41 2.41 92 1011.1
20260905233006 24 308 0.0 0.0 0.00 2.41 2.41 92 1011.0
20260905232512 24 308 0.0 0.0 0.00 2.44 2.41 91 1010.8
20260905232014 24 308 0.0 0.0 0.00 2.44 2.41 91 1010.8
20260905231506 24 308 0.0 0.0 0.00 2.44 2.41 90 1011.0
20260905231007 24 308 0.0 0.0 0.00 2.44 2.41 89 1011.2
20260905230511 24 308 0.0 0.0 0.00 2.44 2.41 89 1011.3
20260905230004 24 308 0.0 0.0 0.00 2.46 2.41 89 1011.2
20260905225508 25 308 0.0 0.0 0.00 2.67 2.41 89 1011.2
20260905225013 25 308 0.0 0.0 0.00 2.67 2.41 89 1011.2
20260905224504 25 308 0.0 3.2 0.00 2.67 2.41 88 1011.2
20260905224009 25 308 0.0 4.8 0.00 2.67 2.41 87 1011.3
20260905223515 25 338 0.0 4.8 0.00 2.67 2.41 87 1011.2
20260905223015 25 334 0.0 4.8 0.00 2.67 2.41 87 1011.2
20260905222509 25 348 0.0 4.8 0.00 2.67 2.41 87 1011.2
20260905222022 25 325 0.0 1.6 0.00 2.67 2.41 87 1011.2
20260905221510 25 350 0.0 0.0 0.00 2.67 2.41 86 1011.1
20260905221012 25 350 0.0 0.0 0.00 2.67 2.41 86 1011.1
20260905220515 25 350 0.0 0.0 0.00 2.67 2.41 87 1011.2
20260905220007 25 350 0.0 0.0 0.00 2.67 2.41 87 1011.1
20260905215513 25 350 0.0 0.0 0.00 2.84 2.41 86 1011.2
20260905215015 25 350 0.0 0.0 0.00 2.92 2.41 88 1011.1
20260905214507 25 350 0.0 0.0 0.00 2.92 2.41 88 1011.3
20260905214012 24 350 0.0 0.0 0.00 2.92 2.41 88 1011.3
20260905213516 24 350 0.0 0.0 0.00 2.92 2.41 88 1011.3
20260905213008 24 350 0.0 0.0 0.00 2.92 2.41 88 1011.3
20260905212510 24 350 0.0 0.0 0.00 2.92 2.41 87 1011.3
20260905212021 24 309 0.0 0.0 0.00 2.92 2.41 87 1011.2
20260905211522 24 309 0.0 0.0 0.00 2.92 2.41 88 1011.2
20260905211012 25 275 0.0 0.0 0.00 2.92 2.41 88 1011.2
20260905210518 25 275 0.0 0.0 0.00 2.92 2.41 89 1011.3
20260905210011 24 275 0.0 1.6 0.00 2.92 2.41 88 1011.3
20260905205513 24 162 0.0 1.6 0.00 2.92 2.41 88 1011.4
20260905205016 24 175 0.0 1.6 0.00 2.92 2.41 88 1011.4
20260905204511 24 42 0.0 1.6 0.00 2.92 2.41 88 1011.4
20260905204015 24 42 0.0 1.6 0.00 2.92 2.41 90 1011.3
20260905203516 24 123 0.0 3.2 0.00 2.92 2.41 91 1011.4
20260905203012 24 123 0.0 3.2 0.00 2.92 2.41 92 1011.4
20260905202513 24 159 0.0 3.2 0.00 2.92 2.41 93 1011.4
20260905202014 24 198 0.0 4.8 0.00 2.92 2.41 94 1011.4
20260905201517 23 167 0.0 4.8 0.03 2.92 2.41 94 1011.3
20260905201015 23 83 0.0 3.2 0.03 2.92 2.41 94 1011.5
20260905200516 23 59 0.0 3.2 0.03 2.92 2.41 94 1011.4
20260905200015 23 142 0.0 3.2 0.08 2.92 2.41 94 1011.4
20260905195515 23 209 0.0 6.4 0.13 2.92 2.41 94 1011.3
20260905195018 23 17 0.0 6.4 0.13 2.92 2.41 95 1011.5
20260905194516 23 299 1.6 6.4 0.13 2.92 2.41 95 1011.5
20260905194016 23 323 1.6 4.8 0.13 2.92 2.41 94 1011.6
20260905193515 23 309 0.0 0.0 0.15 2.92 2.41 95 1011.6